Home   Weather   Germany   Gräfelfing   Past weeks
Flag for Germany

Past Weather in Gräfelfing, Bavaria, Germany — Yesterday and Last 2 Weeks

Currently: 36 °F. Passing clouds. (Weather station: Oberpfaffenhofen, Germany). See more current weather

Past Weather in Gräfelfing — Graph

°F

Gräfelfing Temperature Yesterday

Maximum temperature yesterday: 43 °F (at 12:20 pm)
Minimum temperature yesterday: 39 °F (at 12:20 am)
Average temperature yesterday: 41 °F

High & Low Weather Summary for the Past Weeks

 TemperatureHumidityPressure
High43 °F (Feb 3, 12:20 pm)100% (Jan 20, 9:20 pm)30.48 "Hg (Jan 20, 9:20 pm)
Low14 °F (Jan 22, 11:20 pm)64% (Jan 30, 10:50 am)29.86 "Hg (Jan 20, 6:20 am)
Average31 °F88%30.22 "Hg
* Reported Jan 20 6:20 am — Feb 4 6:50 am, Gräfelfing. Weather by CustomWeather, © 2023

Note: Actual official high and low records may vary slightly from our data, if they occured in-between our weather recording intervals... More about our weather records

Gräfelfing Weather History for the Previous 24 Hours

Scroll right to see more
 ConditionsComfort  
Time TempWeatherWind HumidityBarometerVisibility
6:50 am
Sat, Feb 4
37 °FPartly cloudy.9 mph87%30.42 "HgN/A
6:20 am37 °FPartly cloudy.10 mph93%30.42 "HgN/A
5:50 am39 °FMostly cloudy.10 mph87%30.42 "HgN/A
5:20 am39 °FPartly cloudy.10 mph87%30.39 "HgN/A
4:50 am37 °FMostly cloudy.8 mph93%30.39 "HgN/A
4:20 am37 °FMostly cloudy.14 mph93%30.36 "Hg4 mi
3:50 am39 °FMostly cloudy.9 mph93%30.36 "HgN/A
3:20 am39 °FLow clouds.8 mph93%30.36 "Hg4 mi
2:50 am39 °FMostly cloudy.13 mph93%30.33 "Hg3 mi
2:20 am39 °FLow clouds.20 mph93%30.33 "HgN/A
1:50 am39 °FMostly cloudy.17 mph93%30.33 "Hg4 mi
12:20 am39 °FMostly cloudy.23 mph87%30.30 "HgN/A
11:50 pm
Fri, Feb 3
39 °FOvercast.24 mph87%30.30 "HgN/A
11:20 pm39 °FMostly cloudy.24 mph87%30.30 "HgN/A
10:20 pm39 °FMostly cloudy.25 mph87%30.30 "HgN/A
9:50 pm39 °FMostly cloudy.24 mph87%30.30 "HgN/A
9:20 pm41 °FOvercast.23 mph81%30.30 "HgN/A
8:50 pm41 °FMostly cloudy.23 mph81%30.30 "HgN/A
8:20 pm41 °FMostly cloudy.24 mph81%30.30 "HgN/A
7:50 pm41 °FMostly cloudy.28 mph76%30.30 "HgN/A
7:20 pm41 °FMostly cloudy.24 mph76%30.30 "HgN/A
6:50 pm41 °FMostly cloudy.25 mph76%30.30 "HgN/A
6:20 pm41 °FLight rain. Mostly cloudy.24 mph70%30.27 "HgN/A
5:50 pm41 °FOvercast.28 mph70%30.27 "HgN/A
5:20 pm43 °FPassing clouds.28 mph66%30.27 "HgN/A
4:50 pm43 °FPartly sunny.25 mph66%30.27 "HgN/A
4:20 pm43 °FPartly sunny.30 mph66%30.24 "HgN/A
3:20 pm43 °FBroken clouds.25 mph66%30.27 "HgN/A
2:50 pm43 °FPartly sunny.29 mph66%30.27 "HgN/A
2:20 pm43 °FBroken clouds.26 mph66%30.27 "HgN/A
1:20 pm43 °FPartly sunny.22 mph66%30.30 "HgN/A
12:50 pm43 °FPartly sunny.24 mph66%30.33 "HgN/A
12:20 pm43 °FPartly sunny.25 mph66%30.36 "HgN/A
11:50 am41 °FPartly sunny.21 mph70%30.36 "HgN/A
11:20 am41 °FPartly sunny.25 mph70%30.36 "HgN/A
10:50 am41 °FPartly sunny.26 mph70%30.33 "HgN/A
10:20 am41 °FPartly sunny.22 mph70%30.36 "HgN/A
9:50 am41 °FPartly sunny.22 mph70%30.36 "HgN/A
9:20 am41 °FPartly sunny.23 mph70%30.36 "HgN/A
8:50 am39 °FPartly sunny.22 mph75%30.36 "HgN/A
8:20 am39 °FPartly sunny.22 mph75%30.36 "HgN/A
Weather by CustomWeather, © 2023

See weather overview